Location: Armidale
(30.5016°S, 151.6662°E)
Time: 06:57:23
(UTC+10:00)

N. Korean satellite - Pass Details

Date: 18 May 2021
Orbit: 450 x 500 km, 97.2° (Epoch: 18 June)

Event Time Altitude Azimuth Distance (km) Brightness Sun altitude
Rises 04:47:53 0° 2° (N) 2,470 10.3 -22.7°
Reaches altitude 10° 04:49:56 10° 357° (N) 1,612 9.3 -22.3°
Enters shadow 04:50:57 18° 352° (N) 1,204 8.5 -22.1°
